FENGYUN 1C DEB, 41823

Orbit data source: Space-Track

FENGYUN 1C DEB, 41823 is space debris in LEO originally from a launch on Mon, 10 May 1999 UTC launched from the Taiyaun Space Center, China (TSC). Fengyun 1C debris stems from the Chinese weather satellite Fengyun-1C, which was intentionally destroyed by a Chinese anti-satellite missile in 2007. This event dramatically increased the amount of space debris, with thousands of trackable fragments posing hazards to satellites and human spaceflight. The Fengyun 1C debris cloud has become a focal point in discussions about space sustainability and the need for international regulations to prevent the creation of new debris.

Loading next visibility...
FENGYUN 1C DEB details
Identifier
41823, 1999-025EYA
Orbit
LEO
Last TLE update1 day ago
Origin
Flag of CNCASC (CN / PRC)
ManufacturerUnknown
MissionSpacecraft
Bus & MotorUnknown
MassUnknown
Launch date (UTC)
1999-05-10 (26 years ago)
Launch vehicleUnknown
Launch site
Taiyaun Space Center, China (TSC)
Object type
Payload
Rocket body
Debris
Shape & HBRUnknown
Radar Cross SectionSmall (<0.1 m²)

Expand to show TLE details & history

TLE from 1 day ago
0 FENGYUN 1C DEB
1 41823U 99025EYA 24348.07492642  .00004501  00000-0  20887-2 0  9995
2 41823  98.7496  48.8930 0057707 201.7504 158.1222 14.20291698421752
Epoch: 2024-12-13T01:47Z
Definitive object data (Epoch: 2024-12-13T01:47:53.642Z)
Latitude0.00005°
Longitude-60.32663°
Altitude865.891 km
Speed7.4 km/s
True Right ascension03h 15m 34s
True Declination0° 00' 00"
Sunlit
Object was in full shadow at TLE epoch
Visualization TLE readout
Latitude0.53374°
Longitude-59.36309°
Altitude866.678 km
Speed7.399 km/s
Apparent Right ascension05h 43m 05s
Apparent Declination-49° 24' 31"
Sunlit
Object is in full shadow
Visualization observer readout
Local Sidereal Time01:42:24
Azimuth144.456° SSE
Elevation-13.831°
Doppler factor1
Orbital elements
Apogee altitude863.074 km
Perigee altitude779.979 km
Semi-major axis7,199.663 km
Eccentricity0.0057707
Inclination98.7496°
RAAN48.893°
Arg. of periapsis201.7504°
True anomaly158.36697°
Mean anomaly158.1222°
Eccentric anomaly158.24475°
Mean motion3.55283 °/min
BSTAR0.0020887
Orbital period101.33 mins
Loading maneuver chart data...
Loading historical data...
Loading historical data...
Loading historical data...
Loading historical data...
Loading historical data...
Loading historical data...
Loading historical data...

FENGYUN 1C DEB Visibility forecast

Observer location: undefined°, undefined

Span
Click to sort rows by Start time (UTC) header in descending order
Start Az.
Max El. time (UTC)
Max El. Az.
Max El.
End time (UTC)
End Az.
9 mins2024-12-14 03:17:43.329Z123.195° SE2024-12-14 03:21:43.329Z73.152° E26.533°2024-12-14 03:26:43.329Z7.908° NNE
8 mins2024-12-14 04:58:43.329Z207.254° SW2024-12-14 05:01:43.329Z254.584° W30.503°2024-12-14 05:06:43.329Z326.885° NNW
9 mins2024-12-14 17:16:43.329Z11.36° NNE2024-12-14 17:20:43.329Z247.532° W44.695°2024-12-14 17:25:43.329Z197.96° SSW
5 mins2024-12-15 03:00:43.329Z91.006° ESE2024-12-15 03:02:43.329Z63.278° ENE19.709°2024-12-15 03:05:43.329Z24.849° NE
|